Location: Dumpton Point
(51.3500°N, 1.4433°E)
Time: 12:57:08
(UTC+00:00)

Envisat - Pass Details

Date: 15 December 2021
Orbit: 764 x 766 km, 98.2° (Epoch: 23 January)

Event Time Altitude Azimuth Distance (km) Brightness Sun altitude
Rises 16:40:24 0° 191° (S) 3,222 6.8 -8.0°
Reaches altitude 10° 16:42:54 10° 200° (SSW) 2,300 6.2 -8.3°
Maximum altitude 16:47:29 34° 265° (W) 1,254 4.9 -8.9°
Drops below altitude 10° 16:52:06 10° 330° (NNW) 2,316 5.6 -9.6°
Sets 16:54:38 0° 340° (NNW) 3,247 6.2 -9.9°
